DateTimeUTC,F1_A11,F1_S11,BsB_S11,BsG_S11,BsR_S11,BbsB_S11,BbsG_S11,BbsR_S11,BaB_A11,BaG_A11,BaR_A11,Tu_S11,T_S11,Uu_S11,U_S11,P_S11,T1_A11
2021-04-25T19:00:00Z,00000200,20000000,,,,,,,-000.25,-000.27,-000.17,19.2,26.3,02.0,01.3,0684.5,31.2
2021-04-25T19:01:00Z,00000200,20000000,,,,,,,-000.03,0000.12,0000.40,19.2,26.3,01.7,01.1,0684.5,31.2
2021-04-25T19:02:00Z,00000200,20000000,,,,,,,0000.26,-000.04,-000.13,19.2,26.3,01.7,01.1,0684.5,31.2
2021-04-25T19:03:00Z,00000200,60000000,,,,,,,0000.81,0000.57,0000.36,19.2,26.3,01.7,01.1,0684.5,31.2
2021-04-25T19:04:00Z,00000200,41000000,0001.52,0001.51,0000.86,0000.21,0000.06,0000.22,0000.57,0000.73,0000.42,19.2,26.1,01.8,01.2,0685.5,31.2
2021-04-25T19:05:00Z,00000200,01000000,0002.49,0001.57,0001.14,0001.03,0000.45,0000.34,0000.46,0000.57,0000.51,19.3,26.0,01.8,01.2,0685.6,31.2
2021-04-25T19:06:00Z,00000200,01000000,0001.56,0001.68,0001.28,0000.77,0000.26,0000.24,0000.79,0000.64,0000.50,19.3,26.0,01.8,01.2,0685.6,31.2
2021-04-25T19:07:00Z,00000200,01000000,0001.52,0001.18,0000.67,0000.37,0000.51,0000.29,0001.00,0000.67,0000.67,19.3,26.0,01.7,01.1,0685.5,31.2
2021-04-25T19:08:00Z,00000200,01000000,0001.77,0001.57,0001.11,0000.99,0000.22,-000.09,0000.90,0000.56,0000.70,19.3,26.0,01.7,01.2,0685.6,31.2
2021-04-25T19:09:00Z,00000200,01000000,0001.58,0001.55,0000.79,0000.22,0000.08,-000.02,0000.93,0001.24,0000.41,19.3,26.0,01.8,01.2,0685.5,31.2
2021-04-25T19:10:00Z,00000200,01000000,0002.12,0001.49,0000.85,0000.70,0000.29,0000.42,0000.76,0000.84,0000.51,19.3,26.0,01.9,01.2,0685.5,31.2
2021-04-25T19:11:00Z,00000200,01000000,0002.07,0001.74,0001.00,0000.79,0000.32,0000.38,0000.96,0000.55,0000.55,19.3,26.0,01.9,01.3,0685.5,31.2
2021-04-25T19:12:00Z,00000200,00000000,0001.80,0001.46,0001.01,0000.29,0000.15,0000.16,0000.78,0001.01,0000.84,19.3,26.0,02.0,01.3,0685.5,31.2
2021-04-25T19:13:00Z,00000200,00000000,0002.31,0001.66,0001.15,0000.07,0000.33,0000.28,0001.07,0000.75,0000.53,19.3,26.0,02.0,01.3,0685.5,31.2
2021-04-25T19:14:00Z,00000200,00000000,0002.72,0001.02,0001.08,0000.79,-000.00,0000.28,0000.76,0000.51,0000.48,19.3,26.0,02.0,01.3,0685.5,31.2
2021-04-25T19:15:00Z,00000200,00000000,0002.86,0001.63,0001.05,0000.51,0000.24,0000.42,0000.73,0001.05,0000.59,19.3,26.0,02.0,01.3,0685.5,31.2
2021-04-25T19:16:00Z,00000200,01000000,0002.23,0001.27,0001.00,0000.49,0000.17,0000.21,0001.00,0000.85,0000.78,19.3,26.0,02.0,01.3,0685.5,31.2
2021-04-25T19:17:00Z,00000200,01000000,0001.79,0001.51,0000.99,0000.89,0000.11,0000.28,0000.53,0000.54,0000.20,19.3,25.9,01.9,01.3,0685.5,31.2
2021-04-25T19:18:00Z,00000200,01000000,0002.33,0001.93,0001.08,0000.33,-000.12,0000.40,0000.67,0000.74,0000.58,19.3,25.9,01.9,01.3,0685.5,31.2
2021-04-25T19:19:00Z,00000200,01000000,0002.25,0001.53,0001.05,0000.55,0000.19,0000.33,0000.49,0000.46,0000.86,19.3,25.9,01.8,01.2,0685.6,31.2
2021-04-25T19:20:00Z,00000200,01000000,0001.90,0001.64,0000.76,0000.20,0000.42,0000.16,0001.03,0000.43,0000.15,19.3,25.9,01.8,01.2,0685.6,31.2
2021-04-25T19:21:00Z,00000200,01000000,0001.64,0001.49,0001.19,0000.34,0000.02,0000.39,0000.77,0001.06,0000.43,19.3,25.9,01.8,01.2,0685.6,31.2
2021-04-25T19:22:00Z,00000200,01000000,0001.89,0001.35,0001.27,0000.10,0000.16,0000.34,0000.42,0000.11,0000.43,19.3,25.9,01.7,01.1,0685.6,31.2
2021-04-25T19:23:00Z,00000200,01000000,0001.94,0001.43,0001.05,0000.21,0000.22,0000.39,0001.15,0001.30,0000.74,19.3,25.9,01.7,01.2,0685.6,31.2
2021-04-25T19:24:00Z,00000200,01000000,0002.60,0001.48,0000.88,0000.69,0000.13,-000.05,0000.26,0000.09,0000.24,19.3,25.9,01.8,01.2,0685.6,31.2
2021-04-25T19:25:00Z,00000200,01000000,0001.73,0001.55,0001.10,0000.91,0000.26,0000.43,0000.75,0000.69,0000.26,19.3,25.9,01.6,01.1,0685.6,31.2
2021-04-25T19:26:00Z,00000200,01000000,0001.69,0001.42,0000.77,0000.37,0000.15,0000.24,0000.74,0000.64,0000.50,19.2,25.9,01.6,01.1,0685.6,31.2
2021-04-25T19:27:00Z,00000200,01000000,0002.13,0001.64,0000.93,0000.78,0000.08,0000.11,0000.98,0000.54,0000.63,19.3,25.9,01.6,01.0,0685.6,31.2
2021-04-25T19:28:00Z,00000200,01000000,0001.83,0001.33,0000.76,0000.63,0000.14,0000.28,0000.34,0000.63,0000.50,19.3,25.9,01.5,01.0,0685.6,31.2
2021-04-25T19:29:00Z,00000200,01000000,0001.91,0001.07,0001.00,0000.11,0000.32,0000.12,0000.89,0000.62,0000.40,19.2,25.9,01.5,01.0,0685.6,31.2
2021-04-25T19:30:00Z,00000200,01000000,0001.94,0001.27,0000.92,0000.79,0000.27,0000.12,0000.91,0000.87,0000.74,19.3,25.9,01.6,01.0,0685.6,31.2
2021-04-25T19:31:00Z,00000200,01000000,0002.08,0001.60,0000.86,0000.93,0000.30,0000.06,0000.66,0000.70,0000.55,19.2,25.9,01.6,01.1,0685.6,31.2
2021-04-25T19:32:00Z,00000200,01000000,0001.99,0001.33,0000.72,0000.21,0000.50,0000.16,0001.18,0001.31,0000.55,19.2,25.9,01.5,01.0,0685.6,31.2
2021-04-25T19:33:00Z,00000200,01000000,0001.73,0001.38,0000.86,0000.19,0000.29,0000.53,0000.85,0000.57,0000.98,19.2,25.9,01.7,01.1,0685.6,31.2
2021-04-25T19:34:00Z,00000200,01000000,0002.33,0001.40,0000.82,0000.90,0000.37,0000.29,0000.77,0000.34,0000.37,19.2,25.8,01.7,01.1,0685.7,31.2
2021-04-25T19:35:00Z,00000200,01000000,0002.03,0001.66,0000.83,-000.33,0000.45,0000.03,0000.55,0000.87,0000.31,19.2,25.8,01.7,01.1,0685.7,31.2
2021-04-25T19:36:00Z,00000200,01000000,0001.96,0001.52,0000.95,0000.13,0000.07,0000.11,0000.78,0000.50,0000.78,19.2,25.8,01.6,01.1,0685.7,31.2
2021-04-25T19:37:00Z,00000200,01000000,0002.86,0001.63,0000.77,0000.66,0000.19,0000.49,0000.25,0000.60,0000.05,19.2,25.9,01.6,01.0,0685.7,31.2
2021-04-25T19:38:00Z,00000200,01000000,0001.83,0001.57,0000.94,0000.40,0000.27,0000.34,0001.16,0000.63,0000.46,19.2,25.9,01.6,01.1,0685.7,31.2
2021-04-25T19:39:00Z,00000200,01000000,0001.42,0001.21,0000.84,0001.02,0000.30,0000.36,0000.44,0000.55,0000.68,19.2,25.8,01.5,01.0,0685.7,31.2
2021-04-25T19:40:00Z,00000200,01000000,0002.36,0001.51,0000.99,0000.48,0000.42,0000.40,0000.74,0000.99,0000.61,19.2,25.8,01.5,01.0,0685.7,31.2
2021-04-25T19:41:00Z,00000200,01000000,0002.08,0001.93,0001.00,-000.01,0000.19,0000.27,0000.49,0000.16,0000.24,19.2,25.8,01.4,00.9,0685.7,31.2
2021-04-25T19:42:00Z,00000200,01000000,0001.85,0001.45,0000.89,0000.23,0000.27,0000.41,0000.15,0000.42,0000.05,19.2,25.8,01.3,00.9,0685.8,31.2
2021-04-25T19:43:00Z,00000200,01000000,0002.08,0001.49,0001.04,0000.49,0000.07,0000.25,0001.31,0000.56,0000.96,19.2,25.8,01.2,00.8,0685.8,31.2
2021-04-25T19:44:00Z,00000200,01000000,0001.38,0001.40,0000.74,0000.32,0000.10,0000.24,0000.59,0001.09,-000.12,19.2,25.8,01.3,00.9,0685.8,31.2
2021-04-25T19:45:00Z,00000200,01000000,0001.26,0001.45,0000.75,0000.53,0000.26,0000.28,0000.50,0000.34,0000.85,19.2,25.8,01.2,00.8,0685.8,31.2
2021-04-25T19:46:00Z,00000200,01000000,0001.64,0001.54,0000.73,0001.26,-000.03,0000.15,0000.80,0001.06,0000.41,19.2,25.8,01.2,00.8,0685.8,31.2
2021-04-25T19:47:00Z,00000200,01000000,0002.07,0001.15,0001.01,0000.41,0000.23,0000.40,0000.83,0000.52,0000.47,19.2,25.8,01.3,00.8,0685.8,31.2
2021-04-25T19:48:00Z,00000200,01000000,0001.65,0001.63,0000.88,0000.94,0000.09,0000.28,0001.08,0000.54,0000.88,19.2,25.8,01.3,00.9,0685.8,31.2
2021-04-25T19:49:00Z,00000200,01000000,0002.31,0001.50,0001.32,0000.60,0000.12,0000.57,0000.68,0000.96,0000.61,19.2,25.8,01.4,00.9,0685.8,31.2
2021-04-25T19:50:00Z,00000200,01000000,0002.08,0001.27,0000.93,0000.80,0000.36,0000.24,0000.90,0000.59,0000.56,19.2,25.8,01.3,00.9,0685.8,31.2
2021-04-25T19:51:00Z,00000200,01000000,0002.06,0001.28,0001.04,0000.51,0000.26,0000.15,0001.08,0000.70,0000.27,19.2,25.8,01.4,00.9,0685.8,31.2
2021-04-25T19:52:00Z,00000200,01000000,0002.20,0001.40,0000.91,0000.57,-000.01,0000.50,0000.42,0001.00,0000.67,19.2,25.8,01.3,00.9,0685.8,31.2
2021-04-25T19:53:00Z,00000200,01000000,0001.71,0001.37,0000.95,0000.27,0000.15,0000.25,0001.03,0000.75,0000.75,19.2,25.8,01.3,00.9,0685.8,31.2
2021-04-25T19:54:00Z,00000200,01000000,0001.73,0001.51,0000.85,0000.39,0000.43,0000.26,0000.68,0000.70,0000.30,19.2,25.8,01.4,01.0,0685.8,31.2
2021-04-25T19:55:00Z,00000200,01000000,0002.13,0001.30,0000.88,0000.71,0000.21,0000.41,0000.88,0000.73,0000.93,19.2,25.8,01.3,00.9,0685.8,31.2
2021-04-25T19:56:00Z,00000200,01000000,0002.41,0001.37,0001.03,0000.22,0000.13,0000.49,0000.92,0000.94,0000.61,19.1,25.8,01.4,00.9,0685.8,31.2
2021-04-25T19:57:00Z,00000200,41000000,,,,,,,0000.84,0000.72,0000.35,19.2,25.8,01.2,00.8,0685.7,31.2
2021-04-25T19:58:00Z,00000200,61000000,,,,,,,-000.40,-000.28,-000.13,18.9,25.9,01.5,01.0,0684.8,31.2
2021-04-25T19:59:00Z,00000200,21000000,,,,,,,-000.09,-000.13,-000.44,18.9,26.0,01.4,00.9,0684.7,31.2
